Regional Weather Roundup
Issued by NWS

Home | Current Version | Previous Version | Text Only | Print | Product List | Glossary On
Versions: 1 2 3 4 5 6 7 8 9 10 11 12 13 14 15 16 17 18 19 20 21 22 23 24 25 26 27 28 29 30 31 32 33 34 35 36 37 38 39 40 41 42 43 44 45 46 47 48 49 50
000
ASUS43 KTOP 272308
RWRKS

WEATHER ROUNDUP FOR KANSAS
NATIONAL WEATHER SERVICE GOODLAND KS
600 PM CDT SAT MAY 27 2017

NOTE:  "FAIR" INDICATES FEW OR NO CLOUDS BELOW 12,000 FEET WITH NO
SIGNIFICANT WEATHER AND/OR OBSTRUCTIONS TO VISIBILITY.

KSZ001>006-013>018-027>032-041>047-280000-
NORTHWEST KANSAS

CITY           SKY/WX    TMP DP  RH WIND       PRES   REMARKS
GOODLAND       LGT RAIN  61  49  64 N20G26    30.08R
HAYS           MOSUNNY   74  59  59 N13G21    29.92R
HILL CITY      CLOUDY    70  56  61 N17G23    29.97R
RUSSELL        PTSUNNY   73  58  59 N13       29.89R
$$

KSZ061>065-074>080-084>089-280000-
SOUTHWEST KANSAS

CITY           SKY/WX    TMP DP  RH WIND       PRES   REMARKS
DODGE CITY     CLOUDY    74  56  53 N15G21    29.93R
GARDEN CITY    CLOUDY    71  54  54 N16G24    29.96R
GREAT BEND     PTSUNNY   75  63  66 N13       29.88R
LIBERAL        PTSUNNY   78  55  44 NE10      29.92F
PRATT          CLOUDY    75  56  52 N13       29.87R
$$

KSZ066>073-081>083-090>101-280000-
SOUTHEAST KANSAS

CITY           SKY/WX    TMP DP  RH WIND       PRES   REMARKS
CHANUTE        SUNNY     81  66  60 N9        29.76F
COFFEYVILLE    MOSUNNY   79  72  79 N18       29.71F
HUTCHINSON     PTSUNNY   81  59  47 N14       29.83S
MEDICINE LODGE   N/A     79  59  50 N9        29.83R
NEWTON         PTSUNNY   77  63  61 N16       29.84S
PARSONS        MOSUNNY   79  66  64 N9        29.74F
WICHITA INTL   PTSUNNY   79  61  53 N15       29.81R
WICHITA JABRA  PTSUNNY   76  61  59 N13       29.82R
WICHITA MCCONL PTSUNNY   78  62  57 NE16G23   29.82R
WINFIELD       CLOUDY    82  69  64 NE8       29.78R
$$

KSZ007>012-019>026-033>040-048>060-102>105-280000-
NORTHEAST KANSAS

CITY           SKY/WX    TMP DP  RH WIND       PRES   REMARKS
CONCORDIA      CLOUDY    72  60  66 N14       29.88R
EMPORIA        MOSUNNY   76  64  66 N8        29.82F
LAWRENCE       CLOUDY    76  64  66 N10G18    29.81S
MANHATTAN      PTSUNNY   76  62  62 N8        29.84R
MARYSVILLE     PTSUNNY   72  63  73 NE9       29.88R
OLATHE IND     CLOUDY    70  62  76 N6        29.81F
OLATHE EXE     CLOUDY    68  64  87 NE10      29.79F
SALINA         CLOUDY    76  62  62 N14       29.86R
TOPEKA BILLARD CLOUDY    77  65  66 N10       29.82S
TOPEKA FORBES  CLOUDY    78  64  61 N7        29.83R
$$




USA.gov is the U.S. government's official web portal to all federal, state and local government web resources and services.